Vorticity
17 17 16 15 14 12 11 11 10 9 9 9 9 8 8 9 9 9 9 10 11 11 11 10 10 11 10 9 10 11 11 11 10 11 11 11 11 11 11 11 11 11 11 12 12 12 12 13 13 12 12 12 11 11 10 10 10 9 9 10 9 10 10 9 9 9 8 8 8 9 9 10 10 10 10 10 11 10 10 11 11 12 12 12 12
16 17 17 16 15 13 13 11 10 10 10 10 10 10 10 9 9 9 8 8 9 8 8 8 8 8 6 6 6 7 8 8 8 8 7 7 7 8 8 9 9 10 9 10 10 10 10 10 10 10 10 10 10 10 10 10 10 10 10 10 9 9 9 9 9 10 10 10 11 11 11 12 12 13 13 13 14 14 14 14 14 14 14 14 14
11 13 14 14 14 13 13 12 10 10 10 10 10 10 11 10 10 10 9 8 8 6 6 6 6 6 5 5 5 6 6 7 7 7 7 7 7 6 7 7 7 8 8 9 9 9 10 10 10 11 11 11 11 11 12 11 11 12 11 11 12 12 12 12 12 12 13 13 13 13 13 13 13 13 14 14 14 14 14 15 15 15 14 14 14
6 7 8 9 10 10 11 11 10 9 8 8 9 9 9 9 9 10 11 10 10 9 8 8 7 7 7 7 7 7 7 7 8 9 10 10 11 10 10 10 10 10 10 10 10 10 11 11 11 12 12 12 12 12 12 12 12 12 12 12 12 11 11 12 11 12 13 13 13 13 12 13 13 13 15 15 15 14 12 10 10 11 11 10 9
4 4 4 5 5 6 6 7 8 7 6 6 7 7 7 7 7 7 9 9 10 10 10 11 10 10 9 8 8 9 9 9 9 10 10 11 11 11 11 10 10 10 10 10 9 9 9 9 9 9 9 9 9 9 9 10 10 10 10 11 11 12 12 13 13 14 14 15 15 15 15 14 14 12 11 11 11 12 12 10 7 5 6 6 6
3 3 4 4 4 4 4 5 5 5 6 5 5 5 5 5 5 6 7 7 7 8 8 9 10 10 10 10 10 10 9 9 9 10 9 9 8 8 8 8 8 9 9 9 9 9 9 9 9 8 9 9 9 9 10 10 11 12 12 13 13 14 14 15 15 14 14 13 12 12 11 11 10 9 7 6 5 5 7 10 10 7 4 4 4
4 4 4 4 4 4 4 5 4 4 5 5 5 5 5 6 5 5 6 6 6 6 6 7 8 9 8 9 10 9 10 9 9 8 8 7 7 7 7 9 9 8 8 8 8 9 9 9 10 10 11 11 11 11 11 12 13 13 13 13 13 13 12 12 11 10 10 9 7 7 6 5 5 5 4 4 3 1 0 2 5 7 7 6 3
6 5 5 5 5 5 5 5 5 5 5 5 5 6 6 6 5 5 6 6 5 6 6 7 9 8 7 8 9 8 9 10 8 8 8 7 8 8 8 9 9 8 8 8 8 9 9 10 10 11 11 11 12 12 12 12 12 12 12 11 11 10 9 8 8 7 6 6 5 5 4 4 4 4 5 4 4 4 4 2 1 4 6 9 8
9 7 6 6 6 6 6 6 6 6 6 6 6 6 6 6 6 6 6 6 6 7 7 8 9 8 8 8 8 8 9 9 8 7 7 7 7 8 7 8 7 8 8 9 9 10 11 11 11 11 11 11 12 11 10 10 10 10 10 9 8 7 7 6 6 5 5 5 5 6 6 6 5 6 7 7 6 6 6 5 5 5 5 9 12
9 7 7 6 6 6 6 6 6 6 6 6 6 6 7 6 6 7 7 7 7 7 8 8 9 9 9 9 9 9 10 9 8 7 8 8 8 8 8 8 8 8 9 10 11 11 11 11 12 11 11 11 11 10 9 10 9 9 9 8 7 6 5 5 5 6 6 6 6 7 8 8 7 6 7 8 8 8 7 6 7 10 12 14 18
8 7 7 6 6 6 5 6 6 6 6 6 7 7 7 7 7 7 7 7 8 8 8 8 9 9 9 9 10 10 10 10 9 8 8 8 9 9 9 8 9 10 11 11 11 11 11 11 11 11 11 11 10 9 9 8 8 8 8 7 7 6 6 7 7 7 7 7 7 7 7 8 9 8 7 8 10 10 11 13 14 17 20 20 21
8 6 5 5 6 6 6 7 6 7 7 7 8 8 8 8 8 8 9 9 9 9 8 8 9 9 9 10 10 9 10 10 10 9 9 9 10 9 8 8 9 11 11 11 11 11 11 11 11 11 11 10 9 8 8 8 8 8 7 6 6 6 7 7 7 8 8 8 8 8 7 9 10 9 9 12 15 18 22 24 25 26 25 24 23
9 7 5 6 6 6 7 7 7 7 7 7 8 8 9 9 9 10 11 10 10 9 9 10 10 10 9 9 9 9 10 10 10 10 10 11 11 10 9 9 10 10 10 10 11 10 10 11 13 13 12 10 9 8 7 7 7 7 7 7 7 7 8 8 8 8 8 9 10 10 8 9 10 13 16 20 22 24 25 26 26 27 25 25 24
10 8 6 6 6 6 7 7 7 8 7 8 9 9 10 10 10 11 11 10 11 11 10 10 10 9 9 8 8 9 9 10 10 11 12 13 12 11 11 12 11 10 10 10 10 9 10 12 14 14 13 11 9 8 8 8 7 7 8 8 8 8 8 7 7 8 8 8 9 9 10 13 16 20 22 23 23 22 22 22 22 22 23 24 25
10 8 7 6 5 6 7 7 8 8 8 9 9 9 10 10 11 12 11 12 12 12 11 11 10 10 10 8 9 9 10 10 10 11 13 13 12 12 13 13 11 9 9 9 9 10 12 14 15 15 13 11 10 8 8 7 7 8 8 8 7 7 6 7 7 8 8 8 10 13 16 19 21 21 20 20 20 20 20 20 19 19 20 23 25
9 8 7 5 5 6 7 8 9 8 9 9 10 10 11 10 11 12 12 12 13 13 13 12 9 10 9 9 10 10 11 12 11 12 14 11 9 12 14 12 10 9 9 9 9 11 13 15 16 15 13 11 9 7 8 8 8 7 6 6 5 5 6 8 8 8 10 12 15 18 18 17 17 16 15 17 17 18 19 19 19 20 22 24 24
9 7 6 5 6 7 8 9 9 9 10 10 10 11 10 10 11 11 12 12 13 14 15 12 9 10 9 10 11 11 12 12 10 11 11 7 6 10 11 10 10 9 9 9 10 12 15 16 16 14 13 10 7 7 7 7 6 5 5 5 4 5 8 9 9 10 13 15 16 16 15 15 15 14 14 16 17 19 19 18 19 21 24 26 23
8 6 6 6 6 8 9 9 9 10 10 10 10 10 10 10 10 11 11 12 13 15 16 14 11 10 10 12 13 13 13 11 10 10 9 6 5 7 9 9 9 9 8 8 11 15 17 16 14 13 12 9 6 6 5 4 4 4 4 5 6 7 10 10 11 12 14 14 14 13 14 17 18 16 14 15 18 21 20 17 20 23 24 22 21
7 6 6 6 7 10 11 10 10 10 10 10 10 10 10 11 11 11 12 12 13 16 18 17 13 10 11 11 11 11 12 11 9 8 7 7 4 4 8 8 7 7 7 9 13 16 16 14 11 12 13 8 5 4 3 3 4 3 4 7 8 9 10 11 11 12 13 13 13 14 16 19 21 18 14 15 20 21 18 18 22 24 20 18 19
7 7 7 7 9 11 11 10 10 9 9 10 10 10 11 11 11 12 12 13 15 17 18 17 13 10 10 10 10 10 10 10 8 5 7 7 2 1 7 7 5 7 9 10 12 13 14 12 9 12 12 7 4 3 2 3 3 2 5 8 8 9 11 11 10 9 9 9 10 12 14 20 27 23 13 15 22 20 17 20 23 20 17 16 18
8 7 7 7 9 10 10 10 9 9 10 11 11 11 11 11 11 12 13 14 16 17 17 16 13 12 11 10 10 10 8 9 8 4 6 6 1 -0 4 3 4 8 9 9 9 10 12 11 10 12 11 4 2 2 2 2 2 3 6 8 9 10 11 10 7 6 6 4 4 6 8 16 29 26 13 15 23 19 17 21 20 17 15 16 17
9 8 8 8 10 10 10 10 10 11 12 12 12 11 11 11 12 12 13 15 16 18 17 15 13 14 13 10 8 6 5 8 8 5 7 7 2 0 1 1 3 7 8 8 7 8 11 11 10 12 9 3 1 1 2 2 2 4 6 8 11 12 10 8 4 3 3 1 0 3 2 12 31 29 14 16 23 19 18 20 17 14 15 17 16
9 9 9 10 11 12 12 12 11 12 12 12 11 11 11 12 12 13 14 16 17 18 18 16 15 15 15 12 7 4 3 6 7 7 8 9 5 3 3 3 2 4 6 7 7 8 10 10 10 11 7 3 1 1 2 2 3 4 5 9 14 11 7 6 2 0 2 -1 -1 2 -2 10 34 31 14 17 23 18 18 18 14 13 16 16 14
9 10 10 11 12 12 12 11 11 11 11 11 11 10 11 11 12 13 15 16 17 18 19 18 15 14 15 14 9 6 5 6 7 7 4 4 6 6 7 7 4 4 6 7 9 10 9 9 10 8 6 5 3 2 3 3 3 5 6 12 16 9 4 4 0 -0 2 -3 -0 3 -3 11 37 32 14 20 24 16 17 17 11 13 15 13 12
10 10 11 11 11 11 11 11 11 11 11 11 11 11 12 13 14 15 16 16 17 18 17 16 16 16 18 15 9 6 2 0 4 5 -0 1 7 8 9 9 6 5 7 9 11 12 9 9 9 6 6 6 3 3 4 3 6 6 6 15 18 7 2 3 -1 -0 1 -3 1 2 -4 14 41 32 15 22 23 15 17 16 11 14 15 11 13
10 11 11 11 11 11 11 11 11 11 11 12 12 13 13 14 14 15 16 16 17 17 15 14 14 16 15 8 3 1 -4 -3 9 10 -0 -0 7 8 8 8 5 6 9 11 11 11 9 9 7 6 6 5 3 4 5 5 8 6 5 15 18 8 1 0 -1 0 -0 -2 3 1 -3 20 43 30 16 24 22 15 17 15 11 13 13 11 15
11 12 11 11 11 11 11 12 12 12 13 13 14 14 14 14 15 16 16 16 16 15 14 13 16 18 15 9 7 5 -2 3 14 10 -2 0 8 8 8 7 4 6 10 11 11 11 9 7 6 5 6 4 4 7 6 6 8 5 4 12 18 13 3 -2 -1 1 -2 -1 4 -1 1 29 43 27 18 24 19 14 17 14 10 13 13 14 15
12 12 11 12 12 12 13 14 14 14 14 15 15 15 15 16 17 18 17 16 15 13 13 14 16 19 19 18 18 13 6 6 10 4 -2 3 7 6 6 6 7 10 12 10 10 9 6 5 5 6 6 6 8 9 7 7 7 4 4 9 15 18 10 -1 -1 2 -2 1 4 -3 8 37 42 23 19 22 16 14 16 11 10 14 15 13 12
11 12 12 13 14 14 14 14 14 14 14 14 15 16 16 17 18 17 16 15 13 11 11 12 12 13 16 18 17 11 5 4 4 3 3 4 4 3 5 7 9 10 9 8 8 7 5 5 7 8 8 9 9 8 7 7 4 4 6 6 12 20 16 4 3 2 0 4 2 -2 18 44 37 19 19 20 15 15 14 10 12 16 14 12 14
12 12 13 13 14 14 13 13 13 13 14 14 15 16 16 16 16 14 12 11 11 11 11 11 11 13 15 16 14 9 5 4 4 5 5 5 5 6 7 8 8 8 8 8 9 8 8 8 9 8 8 9 8 7 7 6 4 5 6 6 9 16 17 13 8 3 3 6 -1 2 30 46 30 18 20 18 14 15 11 10 16 16 11 13 17
12 13 13 13 13 13 13 12 12 13 13 13 13 14 15 16 16 15 13 12 12 12 12 12 12 12 11 11 11 10 8 8 7 6 6 6 6 6 6 6 6 7 7 8 9 9 9 9 8 7 8 8 7 7 7 7 7 6 6 6 9 11 15 17 13 6 7 6 -1 11 40 44 24 17 20 16 13 12 9 12 17 14 13 20 21
13 13 13 13 13 13 13 13 13 13 14 14 14 14 15 14 14 14 15 14 12 10 10 10 9 7 7 7 6 5 6 5 5 4 4 4 3 3 4 4 4 4 5 6 8 9 8 8 8 8 8 7 7 8 8 8 9 7 5 7 9 9 13 17 13 10 10 4 2 24 46 37 18 17 20 15 12 10 10 13 15 13 17 22 16
13 13 13 13 14 13 13 13 14 14 15 15 15 17 17 15 11 8 8 8 8 7 6 6 5 5 5 5 5 4 4 4 4 4 3 2 2 2 2 2 3 4 3 4 6 6 6 8 8 8 8 8 9 9 10 11 10 7 6 8 9 10 15 16 12 11 9 2 11 36 45 28 16 18 18 13 11 11 13 14 14 16 20 16 6
14 14 13 13 13 13 13 14 15 15 15 15 16 18 20 20 17 12 9 7 8 9 9 8 8 7 7 7 7 6 6 5 6 5 5 5 5 5 4 5 6 6 6 7 9 10 11 11 11 10 10 11 11 11 12 12 10 7 7 8 9 13 17 15 12 10 4 4 24 44 37 19 16 19 15 11 11 13 15 15 15 18 18 9 3
14 13 13 13 13 13 14 15 14 14 14 15 15 15 15 15 14 13 12 11 11 11 11 10 9 8 7 7 7 7 7 7 8 9 10 11 11 12 13 13 13 13 14 14 15 16 15 14 13 13 13 12 12 12 13 12 10 8 7 8 12 16 17 14 10 6 3 15 37 43 26 15 18 17 11 9 12 14 16 19 21 20 12 5 4
13 13 13 13 13 14 14 14 15 15 16 16 17 16 14 13 11 10 10 10 10 9 8 7 7 7 7 8 10 12 15 17 19 21 23 23 24 24 23 22 21 20 19 19 18 18 18 17 17 17 15 14 13 12 12 11 10 9 8 11 16 18 15 11 7 3 10 29 42 33 18 16 18 13 10 12 13 14 16 19 19 15 7 5 7
13 13 13 14 15 16 17 18 18 19 19 18 16 14 13 12 11 10 9 8 7 7 7 8 11 14 17 21 24 27 29 31 32 32 32 32 33 32 31 31 30 28 26 24 23 22 22 22 21 19 17 14 12 11 11 10 9 8 10 15 18 17 12 7 4 8 23 39 37 23 16 17 15 11 11 13 14 17 19 16 12 7 4 5 7
13 14 15 16 17 19 20 20 19 18 15 12 10 9 8 8 7 8 9 10 13 18 21 25 28 30 32 34 35 34 33 31 30 29 29 30 30 30 30 30 29 28 28 26 24 23 23 21 20 18 16 14 12 11 10 9 9 11 15 18 18 14 8 4 7 20 35 38 27 18 17 15 11 11 13 13 16 21 20 13 6 4 5 7 6
15 16 17 19 19 20 19 17 14 11 8 7 7 7 8 10 13 17 22 27 30 33 33 33 33 31 29 28 26 26 26 24 23 23 24 24 25 26 25 25 25 25 26 25 24 24 23 20 18 17 14 12 11 9 9 11 14 17 20 19 15 8 4 8 20 33 37 29 21 18 16 12 10 12 13 14 19 21 16 9 5 5 6 5 4
17 18 20 19 18 17 14 10 8 7 7 8 10 13 17 23 28 31 32 31 28 26 23 21 20 19 17 16 15 17 19 21 21 21 20 20 22 23 23 24 24 24 24 25 25 24 23 23 22 20 18 17 16 16 17 20 22 22 20 15 8 5 11 22 33 35 30 23 18 16 13 11 12 13 14 18 21 16 8 5 5 6 7 5 6
18 18 18 16 13 10 7 7 8 10 11 15 20 26 31 33 30 26 22 18 16 15 15 14 14 14 14 13 13 15 18 21 22 20 18 18 20 21 22 24 24 24 25 25 24 24 24 24 24 23 24 24 24 24 24 23 21 17 13 8 8 15 26 33 34 29 24 20 16 13 12 12 13 14 17 20 18 10 3 3 7 8 7 7 9
17 15 13 10 8 7 8 10 13 16 21 27 32 32 28 22 16 13 12 12 13 14 14 14 15 14 13 13 14 16 19 23 23 19 16 17 19 20 22 23 24 25 25 24 24 25 25 25 25 24 23 22 21 21 20 18 15 14 13 15 22 30 34 32 28 25 22 18 12 11 12 12 12 17 21 18 11 5 3 5 9 7 4 5 10
13 10 8 8 9 11 13 17 22 28 32 32 27 20 14 11 10 12 13 13 14 14 14 15 15 14 13 14 16 18 22 25 23 18 15 16 18 20 22 23 24 24 25 24 25 26 26 27 28 26 24 24 23 22 21 21 22 23 25 30 33 32 28 26 25 22 18 13 10 11 12 11 13 20 20 12 5 4 5 8 9 4 -1 2 9
9 9 10 12 14 17 22 28 33 33 28 20 13 10 10 11 13 14 14 15 15 14 14 14 13 13 14 16 19 22 25 26 22 16 14 15 17 19 22 24 23 24 25 25 25 26 27 28 29 28 28 29 28 27 28 29 29 29 31 31 29 25 23 25 24 18 13 11 12 12 12 12 18 21 16 8 5 6 8 9 6 -1 -3 2 8
10 12 14 16 21 28 33 34 30 21 13 9 9 11 12 13 14 14 14 14 14 13 14 14 13 14 16 19 22 26 28 26 19 13 12 15 18 22 24 24 24 25 26 25 25 26 27 27 28 28 28 28 27 27 28 27 25 26 26 24 21 23 25 24 19 13 11 12 13 12 11 16 20 18 9 5 5 7 7 6 2 -3 -2 3 5
13 15 19 26 33 36 32 24 15 10 9 10 12 13 12 13 13 12 13 13 13 13 13 13 13 16 21 23 25 28 28 23 15 11 12 17 22 24 24 24 24 24 23 23 23 23 22 22 23 23 22 22 23 23 22 21 22 23 20 19 22 25 24 19 13 11 12 13 12 11 14 19 19 13 5 4 7 8 6 3 -0 -2 -1 2 5
18 23 31 37 36 27 17 11 8 10 11 12 12 12 12 12 12 12 13 13 13 12 12 13 16 21 24 25 28 30 26 18 11 11 16 21 23 23 22 22 21 20 19 19 19 18 17 18 18 17 19 20 20 19 19 21 21 19 18 22 26 24 17 13 11 11 13 13 11 13 18 20 14 7 5 6 9 7 2 -0 1 -0 -2 2 8
28 35 38 33 22 12 8 9 10 11 11 11 11 11 11 11 12 13 14 13 13 12 12 15 21 25 26 27 30 29 21 12 10 14 19 22 22 21 20 19 18 17 17 16 16 16 16 17 17 17 19 19 18 19 21 19 17 18 23 27 24 17 11 11 11 12 13 13 12 16 21 17 8 5 6 7 7 5 1 0 3 2 -1 2 10
38 37 28 17 10 8 9 11 10 10 10 10 10 11 11 12 14 14 14 13 12 12 15 21 27 28 27 30 31 24 15 10 12 17 21 22 20 19 18 17 16 16 15 16 16 16 16 17 18 18 18 17 18 20 18 16 19 26 28 22 15 11 10 11 13 13 12 13 16 19 18 10 4 6 8 7 5 4 3 3 4 2 -1 3 11
32 22 12 8 9 10 10 10 10 10 10 10 10 11 13 14 15 14 14 13 12 14 20 27 29 28 28 30 27 18 11 12 16 20 21 20 18 16 16 15 14 15 15 15 15 15 16 17 18 16 17 19 19 17 17 21 27 28 21 13 11 11 11 12 13 12 11 15 20 18 11 5 6 8 7 5 4 4 4 4 3 1 2 6 11
15 9 8 9 10 10 9 9 9 9 10 10 11 12 14 15 15 14 13 12 14 20 28 30 28 27 30 29 21 12 11 15 19 20 19 16 14 14 14 13 13 14 13 13 14 16 17 17 17 18 19 20 18 18 24 30 27 19 12 10 11 12 12 13 12 12 14 19 19 11 5 6 9 7 4 4 6 6 5 4 3 2 4 8 11
Height
5624 5621 5619 5616 5613 5611 5608 5606 5603 5600 5598 5596 5593 5591 5588 5586 5583 5581 5579 5577 5574 5572 5569 5567 5565 5563 5561 5559 5557 5555 5553 5551 5549 5546 5544 5542 5540 5538 5536 5535 5533 5531 5529 5527 5526 5524 5522 5521 5519 5518 5516 5514 5513 5511 5510 5508 5506 5505 5503 5501 5499 5497 5495 5493 5491 5489 5488 5486 5483 5482 5480 5478 5476 5474 5472 5470 5468 5467 5465 5463 5461 5458 5456 5454 5452
5622 5619 5616 5613 5610 5608 5605 5602 5599 5597 5594 5592 5590 5587 5585 5582 5580 5578 5575 5573 5571 5568 5566 5564 5561 5559 5557 5555 5553 5551 5549 5547 5545 5543 5541 5538 5536 5534 5532 5530 5529 5527 5525 5523 5521 5519 5517 5516 5514 5512 5510 5509 5507 5505 5504 5502 5500 5498 5496 5494 5492 5490 5488 5486 5484 5482 5480 5478 5476 5474 5473 5470 5468 5467 5465 5463 5460 5459 5457 5454 5452 5450 5448 5446 5444
5619 5616 5613 5610 5607 5605 5602 5599 5596 5593 5591 5588 5586 5583 5581 5578 5576 5574 5572 5569 5567 5564 5562 5560 5557 5555 5553 5551 5549 5547 5545 5543 5540 5538 5536 5534 5532 5530 5528 5526 5524 5522 5520 5518 5516 5515 5513 5511 5509 5507 5505 5503 5501 5500 5498 5496 5494 5492 5490 5488 5486 5484 5481 5479 5477 5475 5473 5472 5469 5467 5465 5463 5461 5459 5457 5455 5453 5451 5449 5447 5444 5442 5440 5438 5435
5616 5613 5610 5607 5604 5601 5599 5596 5593 5590 5587 5584 5582 5579 5577 5574 5572 5570 5568 5565 5563 5560 5558 5556 5553 5551 5548 5546 5544 5542 5540 5538 5536 5533 5531 5529 5527 5525 5523 5521 5519 5517 5515 5513 5511 5509 5507 5505 5503 5501 5499 5497 5496 5494 5492 5490 5488 5486 5484 5482 5480 5477 5475 5473 5471 5469 5467 5465 5463 5461 5458 5457 5455 5452 5449 5447 5445 5443 5441 5440 5437 5434 5432 5430 5427
5613 5610 5607 5604 5601 5598 5595 5592 5589 5586 5583 5580 5578 5575 5572 5570 5567 5565 5563 5561 5559 5556 5554 5551 5549 5546 5544 5542 5539 5537 5535 5533 5531 5528 5526 5524 5522 5520 5518 5516 5514 5512 5510 5508 5506 5504 5502 5500 5498 5496 5494 5492 5490 5488 5486 5484 5482 5480 5477 5476 5473 5471 5469 5467 5465 5463 5461 5458 5456 5454 5452 5450 5448 5446 5443 5440 5438 5435 5432 5431 5429 5427 5424 5422 5419
5610 5606 5604 5600 5597 5594 5592 5589 5586 5583 5580 5577 5574 5571 5568 5565 5563 5560 5558 5556 5554 5552 5549 5547 5544 5542 5539 5537 5534 5532 5530 5528 5526 5523 5521 5519 5517 5515 5513 5511 5509 5507 5505 5503 5501 5499 5497 5494 5492 5490 5488 5486 5484 5482 5480 5478 5476 5473 5471 5469 5467 5465 5463 5461 5459 5457 5455 5452 5450 5448 5445 5443 5441 5439 5437 5434 5432 5429 5425 5421 5419 5417 5415 5413 5411
5606 5603 5600 5597 5593 5590 5588 5585 5582 5579 5576 5573 5570 5567 5564 5561 5558 5555 5553 5551 5548 5546 5544 5542 5539 5537 5534 5532 5529 5527 5525 5523 5521 5518 5516 5514 5512 5510 5508 5506 5504 5502 5500 5498 5496 5493 5491 5489 5487 5484 5482 5480 5478 5476 5474 5472 5470 5468 5465 5463 5461 5459 5457 5455 5453 5450 5448 5446 5444 5442 5439 5437 5435 5432 5430 5428 5425 5423 5420 5416 5411 5408 5405 5403 5401
5602 5599 5596 5592 5589 5586 5583 5580 5577 5574 5572 5569 5566 5563 5560 5557 5554 5551 5548 5545 5543 5541 5539 5536 5534 5532 5529 5526 5524 5522 5520 5517 5515 5513 5511 5509 5507 5505 5503 5501 5499 5497 5495 5493 5490 5488 5486 5483 5481 5479 5477 5474 5472 5470 5468 5466 5464 5462 5460 5458 5455 5453 5451 5449 5447 5444 5442 5440 5437 5435 5433 5431 5428 5425 5422 5420 5417 5414 5412 5409 5405 5400 5395 5391 5390
5597 5594 5591 5588 5585 5582 5579 5576 5573 5570 5567 5564 5561 5558 5555 5552 5549 5546 5543 5540 5537 5535 5533 5531 5529 5526 5524 5521 5519 5516 5514 5512 5510 5507 5505 5503 5501 5499 5497 5495 5493 5491 5489 5487 5485 5482 5480 5478 5475 5473 5471 5469 5467 5465 5463 5461 5459 5457 5454 5452 5450 5448 5445 5443 5441 5439 5436 5434 5431 5428 5426 5424 5421 5417 5414 5411 5408 5406 5403 5399 5395 5391 5387 5381 5377
5593 5589 5586 5583 5580 5577 5574 5571 5568 5565 5562 5559 5556 5553 5550 5546 5543 5540 5537 5534 5532 5529 5527 5525 5523 5520 5518 5515 5513 5511 5508 5506 5504 5501 5500 5498 5495 5493 5492 5490 5488 5486 5483 5481 5479 5477 5475 5472 5470 5467 5465 5463 5461 5459 5457 5455 5453 5451 5449 5447 5444 5442 5440 5437 5435 5432 5430 5427 5424 5421 5418 5416 5413 5410 5406 5402 5399 5396 5393 5390 5386 5381 5377 5372 5364
5588 5585 5581 5578 5575 5572 5569 5566 5563 5559 5556 5553 5550 5547 5544 5541 5538 5534 5531 5529 5526 5523 5521 5518 5516 5514 5512 5510 5507 5505 5503 5500 5498 5495 5494 5492 5490 5488 5486 5484 5482 5480 5478 5475 5473 5471 5469 5466 5464 5462 5459 5457 5455 5453 5451 5449 5447 5445 5443 5441 5438 5436 5433 5431 5428 5426 5423 5420 5418 5414 5411 5407 5405 5402 5398 5393 5389 5386 5382 5379 5376 5370 5366 5362 5356
5582 5579 5576 5573 5570 5567 5564 5560 5557 5554 5550 5547 5544 5541 5538 5535 5532 5528 5525 5522 5519 5517 5514 5512 5510 5508 5505 5503 5501 5499 5497 5495 5492 5489 5487 5485 5484 5482 5479 5477 5475 5473 5471 5469 5467 5465 5463 5460 5458 5456 5453 5451 5449 5447 5446 5443 5441 5439 5437 5435 5432 5430 5427 5424 5422 5419 5416 5413 5410 5407 5403 5399 5396 5393 5389 5385 5380 5376 5372 5367 5364 5360 5354 5350 5347
5577 5574 5570 5567 5564 5561 5558 5555 5551 5548 5545 5541 5538 5535 5531 5528 5525 5522 5519 5516 5513 5510 5508 5505 5503 5501 5499 5497 5495 5492 5490 5488 5486 5483 5481 5479 5477 5475 5473 5471 5469 5467 5465 5463 5461 5459 5457 5454 5452 5450 5447 5445 5443 5442 5440 5438 5436 5433 5431 5429 5426 5424 5421 5418 5415 5412 5409 5405 5402 5399 5396 5392 5387 5384 5380 5376 5371 5366 5362 5357 5353 5349 5344 5339 5336
5571 5568 5564 5561 5558 5555 5551 5548 5545 5542 5538 5535 5531 5528 5525 5522 5519 5516 5513 5510 5507 5504 5501 5499 5497 5494 5492 5490 5488 5486 5484 5482 5480 5477 5475 5472 5470 5469 5467 5464 5462 5460 5458 5456 5454 5452 5450 5448 5446 5444 5441 5439 5437 5436 5434 5432 5430 5427 5425 5423 5420 5417 5415 5412 5409 5405 5402 5399 5395 5390 5387 5383 5379 5375 5371 5367 5363 5358 5354 5349 5345 5340 5335 5330 5326
5564 5562 5558 5555 5552 5548 5545 5541 5538 5535 5531 5528 5525 5521 5518 5515 5512 5509 5506 5503 5500 5497 5494 5491 5489 5487 5485 5483 5481 5479 5477 5475 5473 5471 5469 5466 5463 5462 5460 5458 5456 5454 5452 5450 5448 5446 5444 5442 5440 5438 5436 5433 5431 5430 5428 5426 5424 5421 5419 5416 5414 5411 5408 5405 5402 5398 5395 5391 5387 5383 5379 5375 5371 5367 5363 5359 5354 5349 5345 5341 5338 5334 5329 5324 5318
5558 5555 5552 5549 5545 5542 5538 5534 5531 5528 5524 5521 5518 5514 5511 5508 5505 5502 5499 5496 5493 5490 5487 5484 5482 5480 5478 5476 5474 5472 5470 5468 5466 5464 5463 5460 5457 5455 5454 5452 5449 5447 5445 5443 5442 5439 5437 5435 5434 5432 5430 5428 5426 5424 5422 5420 5418 5415 5413 5410 5407 5404 5401 5398 5395 5392 5388 5384 5380 5376 5371 5367 5363 5360 5356 5352 5347 5343 5338 5334 5330 5327 5323 5320 5314
5552 5548 5545 5542 5538 5534 5531 5527 5524 5520 5517 5513 5510 5507 5504 5501 5497 5495 5492 5489 5486 5483 5480 5477 5475 5473 5471 5469 5466 5465 5463 5461 5459 5458 5456 5454 5451 5449 5447 5445 5443 5441 5439 5437 5435 5433 5431 5429 5428 5426 5424 5422 5420 5418 5416 5414 5412 5409 5407 5404 5401 5398 5395 5392 5388 5385 5382 5378 5373 5369 5365 5361 5356 5353 5349 5345 5341 5336 5332 5328 5324 5320 5317 5314 5311
5545 5541 5538 5534 5531 5527 5523 5520 5516 5513 5509 5506 5502 5499 5496 5493 5490 5487 5484 5481 5479 5476 5473 5470 5468 5465 5464 5462 5459 5457 5455 5454 5452 5451 5449 5448 5445 5442 5441 5439 5437 5435 5433 5431 5428 5427 5425 5423 5422 5420 5418 5416 5414 5413 5411 5408 5406 5404 5400 5397 5395 5392 5389 5385 5382 5379 5375 5372 5368 5363 5359 5355 5350 5346 5342 5337 5334 5330 5326 5323 5319 5315 5312 5309 5307
5538 5534 5531 5527 5523 5519 5516 5512 5509 5505 5501 5498 5495 5492 5489 5486 5483 5480 5477 5474 5471 5468 5466 5463 5461 5458 5456 5454 5452 5450 5448 5447 5445 5443 5442 5441 5439 5436 5434 5433 5431 5428 5426 5424 5422 5420 5419 5417 5416 5414 5412 5410 5409 5407 5405 5402 5400 5398 5395 5391 5388 5386 5383 5379 5376 5372 5369 5365 5361 5357 5353 5349 5344 5340 5335 5331 5328 5324 5320 5317 5314 5310 5307 5304 5302
5531 5527 5523 5519 5516 5512 5508 5504 5501 5497 5494 5490 5487 5484 5481 5478 5475 5472 5469 5466 5463 5461 5458 5456 5454 5452 5449 5447 5445 5444 5442 5440 5438 5437 5435 5434 5432 5430 5428 5426 5424 5422 5420 5418 5416 5414 5413 5411 5410 5408 5406 5404 5402 5401 5399 5396 5394 5391 5389 5385 5382 5380 5377 5374 5371 5367 5363 5359 5355 5351 5346 5342 5337 5333 5329 5325 5322 5318 5315 5312 5309 5306 5303 5300 5298
5523 5519 5515 5512 5508 5504 5500 5497 5493 5489 5486 5482 5479 5475 5472 5469 5466 5463 5461 5458 5455 5453 5451 5449 5447 5444 5442 5440 5438 5436 5434 5433 5432 5430 5428 5427 5425 5423 5421 5420 5418 5416 5413 5411 5409 5407 5406 5405 5403 5402 5400 5398 5396 5394 5392 5390 5387 5385 5383 5380 5377 5374 5371 5368 5365 5362 5358 5354 5350 5345 5341 5336 5331 5327 5324 5320 5317 5313 5310 5307 5305 5302 5299 5297 5295
5516 5512 5508 5504 5500 5496 5492 5488 5485 5481 5477 5474 5470 5467 5464 5461 5458 5455 5452 5450 5447 5445 5443 5441 5439 5437 5435 5433 5431 5429 5427 5426 5424 5423 5421 5419 5418 5417 5415 5413 5411 5409 5407 5404 5402 5400 5399 5398 5396 5395 5393 5392 5390 5388 5386 5384 5381 5379 5376 5374 5371 5368 5365 5362 5359 5356 5352 5349 5345 5340 5336 5331 5326 5322 5318 5315 5312 5309 5306 5303 5301 5299 5296 5294 5292
5507 5503 5499 5496 5492 5488 5484 5480 5476 5473 5469 5465 5462 5458 5455 5452 5449 5446 5443 5441 5439 5437 5435 5432 5431 5429 5427 5425 5423 5422 5420 5418 5417 5415 5414 5412 5411 5409 5408 5406 5404 5402 5400 5398 5396 5393 5391 5390 5389 5388 5386 5385 5383 5381 5380 5378 5375 5373 5370 5368 5365 5363 5360 5357 5353 5350 5347 5343 5339 5335 5331 5327 5322 5317 5313 5310 5307 5305 5302 5299 5297 5295 5293 5291 5288
5499 5495 5491 5487 5483 5479 5475 5472 5468 5464 5461 5457 5453 5449 5446 5443 5440 5437 5434 5432 5430 5428 5426 5424 5423 5421 5420 5417 5415 5414 5413 5411 5409 5407 5406 5405 5403 5402 5400 5398 5396 5395 5393 5391 5389 5387 5384 5382 5381 5380 5379 5377 5376 5375 5373 5371 5369 5367 5364 5362 5359 5357 5354 5351 5348 5345 5341 5338 5334 5330 5326 5322 5317 5313 5309 5306 5304 5301 5299 5296 5294 5292 5290 5288 5285
5490 5486 5482 5478 5474 5470 5466 5463 5459 5455 5452 5448 5444 5440 5437 5434 5431 5428 5425 5423 5421 5420 5418 5416 5415 5413 5412 5409 5407 5405 5404 5403 5401 5399 5398 5396 5395 5394 5392 5391 5389 5387 5385 5383 5382 5380 5378 5375 5374 5372 5371 5370 5369 5367 5366 5364 5362 5360 5358 5356 5353 5351 5348 5345 5342 5339 5336 5333 5329 5325 5321 5317 5312 5309 5306 5303 5300 5298 5296 5293 5291 5289 5288 5286 5283
5481 5477 5473 5469 5465 5461 5457 5453 5450 5446 5442 5439 5436 5432 5429 5425 5422 5419 5416 5414 5412 5411 5409 5408 5406 5405 5403 5401 5399 5397 5395 5394 5392 5390 5389 5387 5386 5385 5384 5383 5381 5379 5377 5375 5374 5372 5371 5368 5366 5365 5364 5362 5361 5360 5359 5357 5356 5353 5351 5349 5347 5345 5342 5340 5337 5334 5331 5327 5323 5320 5316 5312 5308 5304 5302 5299 5297 5295 5294 5291 5288 5287 5285 5283 5280
5472 5468 5464 5460 5456 5452 5448 5444 5441 5437 5433 5430 5427 5423 5420 5417 5414 5410 5407 5405 5404 5402 5401 5399 5398 5396 5394 5392 5390 5388 5386 5385 5383 5382 5380 5378 5376 5375 5374 5374 5373 5371 5369 5367 5366 5364 5363 5361 5359 5357 5356 5355 5354 5352 5351 5350 5348 5346 5344 5342 5340 5338 5336 5334 5331 5329 5326 5322 5318 5315 5311 5307 5303 5300 5297 5295 5293 5292 5290 5289 5287 5285 5283 5281 5279
5463 5459 5455 5451 5446 5442 5439 5435 5431 5428 5424 5421 5417 5414 5410 5407 5405 5402 5399 5397 5395 5394 5392 5390 5388 5387 5385 5383 5381 5380 5378 5376 5375 5373 5371 5369 5368 5366 5365 5363 5363 5362 5361 5359 5358 5356 5354 5353 5351 5349 5348 5347 5346 5344 5343 5342 5341 5339 5337 5335 5333 5331 5329 5328 5325 5323 5320 5317 5313 5310 5306 5302 5299 5296 5294 5291 5290 5289 5287 5286 5284 5283 5281 5279 5277
5454 5450 5446 5441 5437 5433 5429 5425 5422 5418 5415 5411 5407 5404 5401 5398 5395 5393 5390 5388 5386 5385 5383 5381 5379 5377 5376 5374 5373 5371 5369 5367 5366 5365 5363 5361 5359 5357 5355 5354 5352 5351 5351 5350 5349 5347 5346 5344 5342 5341 5340 5339 5338 5336 5335 5334 5333 5331 5329 5328 5326 5324 5323 5321 5319 5317 5314 5311 5308 5305 5301 5298 5295 5292 5290 5288 5286 5285 5285 5283 5282 5280 5279 5277 5275
5443 5440 5436 5432 5428 5423 5419 5415 5412 5408 5405 5402 5398 5394 5391 5388 5386 5384 5382 5379 5377 5376 5374 5372 5370 5369 5367 5365 5363 5362 5361 5359 5357 5355 5353 5352 5350 5348 5346 5344 5343 5342 5340 5340 5339 5338 5336 5335 5334 5332 5331 5330 5329 5328 5327 5327 5325 5323 5322 5321 5319 5317 5316 5315 5313 5311 5308 5306 5303 5300 5297 5293 5291 5289 5287 5285 5283 5282 5282 5281 5279 5278 5276 5275 5273
5433 5429 5425 5421 5418 5414 5410 5406 5402 5398 5395 5392 5389 5386 5383 5379 5377 5375 5374 5371 5369 5366 5365 5363 5361 5359 5358 5356 5354 5352 5351 5350 5348 5346 5344 5342 5340 5338 5337 5335 5334 5333 5331 5330 5329 5328 5326 5325 5325 5323 5323 5322 5321 5320 5319 5318 5317 5316 5314 5313 5312 5311 5310 5308 5307 5305 5302 5300 5298 5295 5292 5289 5287 5285 5283 5282 5281 5279 5279 5278 5277 5276 5274 5273 5272
5424 5420 5415 5411 5407 5404 5400 5396 5392 5389 5385 5382 5379 5377 5374 5371 5368 5365 5363 5362 5360 5357 5355 5353 5351 5350 5348 5346 5344 5342 5341 5339 5338 5336 5334 5332 5330 5328 5327 5326 5325 5324 5322 5321 5319 5317 5316 5315 5315 5314 5313 5313 5312 5311 5311 5310 5309 5308 5307 5306 5305 5304 5303 5302 5300 5298 5296 5294 5292 5289 5287 5285 5283 5281 5280 5279 5278 5277 5276 5275 5274 5273 5272 5271 5270
5415 5410 5406 5401 5397 5393 5390 5386 5383 5379 5376 5373 5370 5367 5365 5363 5360 5356 5353 5351 5349 5348 5346 5343 5341 5339 5337 5335 5334 5332 5330 5328 5326 5325 5323 5321 5319 5318 5316 5315 5314 5313 5312 5312 5310 5307 5305 5305 5305 5304 5303 5303 5302 5302 5302 5301 5301 5300 5299 5298 5298 5297 5297 5295 5293 5291 5290 5288 5286 5284 5282 5281 5279 5278 5277 5276 5276 5275 5274 5273 5272 5271 5271 5269 5268
5405 5401 5397 5392 5388 5384 5380 5376 5373 5370 5366 5363 5360 5357 5355 5353 5351 5348 5345 5342 5338 5336 5335 5333 5332 5329 5327 5324 5322 5321 5319 5317 5314 5312 5311 5309 5308 5306 5305 5304 5302 5301 5300 5300 5300 5298 5296 5295 5295 5294 5294 5294 5293 5293 5293 5293 5292 5292 5291 5291 5290 5290 5289 5288 5287 5285 5284 5283 5281 5279 5277 5277 5276 5275 5274 5273 5273 5273 5272 5271 5270 5270 5269 5268 5267
5395 5391 5387 5383 5378 5374 5370 5367 5363 5360 5357 5353 5351 5348 5345 5343 5341 5339 5336 5334 5330 5326 5323 5321 5320 5319 5316 5314 5311 5309 5306 5304 5302 5299 5297 5296 5294 5293 5292 5291 5290 5288 5287 5287 5287 5287 5286 5284 5284 5284 5284 5284 5284 5284 5284 5284 5284 5284 5284 5284 5284 5283 5283 5282 5280 5279 5278 5277 5275 5274 5273 5273 5272 5271 5271 5270 5270 5270 5270 5269 5269 5268 5268 5267 5267
5385 5381 5377 5373 5369 5365 5361 5357 5354 5350 5347 5344 5341 5338 5336 5333 5331 5328 5326 5324 5321 5317 5313 5310 5307 5305 5303 5302 5299 5296 5292 5290 5287 5285 5283 5281 5280 5279 5278 5277 5276 5275 5274 5274 5274 5274 5274 5274 5273 5274 5274 5275 5275 5275 5275 5275 5276 5276 5277 5277 5277 5276 5276 5275 5274 5273 5272 5271 5270 5269 5269 5269 5269 5268 5268 5268 5268 5268 5267 5267 5267 5267 5267 5267 5266
5374 5371 5367 5363 5359 5355 5351 5348 5344 5341 5338 5335 5332 5329 5326 5323 5321 5318 5315 5312 5310 5307 5303 5299 5295 5292 5289 5287 5285 5282 5279 5276 5273 5271 5269 5267 5266 5265 5264 5263 5263 5262 5262 5261 5261 5261 5262 5262 5262 5263 5264 5265 5265 5266 5267 5267 5267 5268 5269 5269 5269 5269 5269 5269 5268 5267 5266 5265 5265 5265 5266 5266 5266 5266 5266 5266 5266 5266 5266 5266 5266 5266 5266 5265 5264
5365 5361 5357 5353 5349 5345 5342 5338 5335 5332 5328 5326 5323 5319 5316 5313 5310 5307 5304 5301 5298 5295 5291 5288 5284 5281 5277 5274 5271 5270 5267 5264 5261 5259 5257 5256 5254 5253 5251 5251 5250 5250 5249 5249 5249 5249 5250 5250 5251 5252 5253 5254 5256 5257 5258 5259 5259 5260 5262 5262 5262 5262 5262 5262 5262 5261 5260 5260 5261 5262 5262 5262 5263 5263 5263 5263 5264 5264 5264 5264 5265 5265 5264 5264 5263
5356 5352 5348 5344 5340 5336 5332 5329 5325 5322 5319 5316 5313 5310 5306 5303 5299 5296 5292 5289 5286 5283 5280 5277 5274 5271 5269 5265 5262 5259 5257 5254 5251 5249 5247 5246 5244 5242 5241 5240 5239 5239 5238 5238 5238 5238 5239 5240 5241 5242 5243 5244 5246 5248 5249 5250 5252 5253 5254 5254 5255 5255 5256 5256 5255 5255 5255 5256 5257 5258 5259 5259 5260 5260 5261 5261 5262 5262 5263 5263 5264 5264 5263 5263 5262
5346 5342 5338 5335 5331 5327 5324 5320 5316 5313 5310 5306 5303 5299 5295 5292 5288 5285 5282 5279 5276 5273 5271 5268 5265 5263 5260 5257 5254 5251 5248 5245 5242 5240 5239 5237 5235 5233 5232 5231 5230 5229 5229 5228 5228 5228 5229 5230 5231 5232 5233 5235 5237 5239 5241 5242 5244 5245 5246 5247 5248 5249 5249 5249 5249 5250 5251 5252 5254 5255 5256 5257 5257 5258 5259 5259 5260 5261 5261 5262 5263 5263 5263 5262 5261
5336 5332 5329 5325 5322 5318 5315 5311 5307 5304 5300 5296 5292 5288 5285 5282 5279 5276 5273 5271 5268 5265 5263 5260 5257 5255 5252 5249 5246 5243 5240 5237 5234 5232 5231 5229 5227 5225 5223 5222 5221 5221 5220 5220 5219 5219 5220 5221 5221 5223 5224 5226 5228 5230 5233 5235 5236 5237 5239 5240 5241 5242 5243 5243 5244 5245 5247 5249 5251 5252 5253 5254 5255 5256 5257 5258 5258 5259 5261 5261 5262 5262 5262 5261 5260
5327 5323 5319 5316 5313 5309 5305 5301 5297 5294 5290 5286 5283 5279 5276 5274 5271 5268 5266 5263 5260 5258 5255 5252 5249 5246 5244 5241 5238 5235 5232 5229 5227 5225 5223 5222 5220 5218 5216 5215 5214 5213 5212 5211 5211 5211 5212 5213 5214 5215 5216 5218 5220 5223 5225 5227 5229 5230 5231 5233 5234 5236 5237 5238 5240 5242 5244 5246 5248 5249 5250 5252 5253 5254 5255 5256 5257 5259 5260 5261 5261 5261 5261 5260 5259
5318 5314 5310 5307 5303 5300 5296 5292 5288 5284 5280 5277 5274 5272 5269 5267 5264 5261 5258 5255 5253 5250 5247 5244 5241 5238 5235 5233 5230 5227 5224 5222 5220 5218 5217 5215 5213 5212 5210 5208 5207 5206 5205 5205 5204 5204 5205 5206 5207 5208 5210 5211 5213 5216 5218 5220 5222 5223 5225 5226 5228 5230 5232 5234 5236 5239 5241 5243 5245 5247 5248 5250 5251 5252 5254 5255 5256 5258 5259 5260 5260 5260 5260 5259 5258
5309 5305 5301 5297 5294 5290 5287 5283 5279 5275 5272 5270 5267 5265 5262 5259 5257 5254 5251 5248 5245 5242 5239 5236 5233 5230 5227 5224 5222 5219 5216 5214 5213 5212 5210 5209 5207 5206 5204 5202 5201 5200 5199 5199 5199 5199 5199 5200 5201 5203 5204 5206 5207 5209 5211 5213 5215 5217 5219 5221 5224 5226 5229 5231 5234 5236 5239 5241 5243 5245 5246 5248 5249 5251 5252 5254 5256 5257 5258 5259 5259 5259 5259 5258 5257
5300 5296 5292 5288 5284 5280 5277 5274 5271 5268 5266 5263 5260 5258 5255 5252 5249 5246 5243 5240 5237 5234 5232 5229 5226 5222 5219 5216 5214 5212 5209 5208 5207 5206 5205 5203 5202 5200 5198 5197 5196 5195 5195 5195 5195 5195 5195 5196 5197 5198 5199 5201 5202 5204 5206 5208 5210 5213 5215 5218 5221 5223 5226 5229 5232 5234 5237 5239 5241 5243 5245 5246 5248 5250 5252 5254 5255 5257 5258 5258 5258 5258 5258 5257 5256
5291 5287 5283 5279 5275 5272 5269 5267 5264 5262 5259 5257 5254 5251 5248 5245 5242 5239 5236 5233 5230 5227 5224 5221 5218 5215 5212 5209 5207 5205 5203 5202 5202 5201 5200 5198 5197 5195 5194 5193 5192 5192 5192 5191 5191 5192 5192 5192 5193 5194 5196 5197 5199 5201 5203 5205 5208 5210 5213 5216 5219 5221 5224 5227 5230 5233 5235 5237 5239 5241 5243 5245 5247 5249 5251 5253 5255 5256 5257 5257 5258 5258 5257 5256 5255
5282 5278 5274 5271 5267 5265 5262 5260 5258 5255 5252 5250 5247 5244 5241 5238 5235 5232 5229 5226 5223 5220 5217 5214 5211 5207 5205 5202 5200 5199 5198 5197 5197 5196 5195 5194 5192 5191 5191 5190 5189 5189 5189 5189 5189 5189 5189 5190 5191 5192 5194 5195 5197 5199 5201 5203 5206 5208 5211 5214 5217 5220 5223 5226 5229 5231 5234 5236 5238 5240 5242 5244 5247 5249 5251 5253 5254 5256 5256 5257 5257 5257 5257 5256 5255
5273 5269 5266 5264 5261 5259 5256 5254 5251 5248 5246 5243 5240 5237 5234 5231 5228 5225 5222 5219 5216 5213 5210 5207 5203 5200 5198 5196 5195 5194 5193 5193 5192 5192 5191 5190 5189 5188 5188 5187 5187 5187 5187 5187 5187 5187 5188 5188 5189 5191 5192 5194 5196 5197 5200 5202 5205 5207 5210 5213 5216 5219 5222 5225 5228 5230 5233 5235 5238 5240 5242 5244 5247 5249 5251 5253 5254 5255 5256 5256 5256 5256 5256 5255 5254
5265 5262 5259 5257 5255 5252 5250 5247 5245 5242 5239 5236 5233 5230 5227 5224 5221 5218 5215 5212 5209 5206 5203 5200 5197 5194 5192 5191 5190 5189 5189 5189 5188 5188 5187 5186 5186 5185 5185 5185 5185 5185 5185 5185 5185 5186 5186 5187 5188 5190 5191 5193 5194 5196 5199 5201 5204 5206 5209 5212 5215 5218 5221 5224 5227 5230 5232 5235 5237 5239 5242 5244 5247 5249 5251 5252 5254 5255 5255 5255 5256 5255 5255 5254 5253
5258 5255 5253 5251 5248 5246 5243 5241 5238 5235 5233 5230 5227 5223 5220 5217 5214 5211 5208 5205 5202 5199 5196 5193 5191 5189 5187 5186 5186 5186 5185 5185 5185 5184 5184 5184 5183 5183 5183 5183 5183 5183 5183 5183 5184 5184 5185 5186 5187 5189 5190 5192 5194 5196 5198 5201 5203 5206 5209 5212 5215 5218 5221 5224 5227 5230 5232 5235 5237 5239 5242 5245 5247 5249 5251 5253 5254 5254 5255 5255 5255 5255 5254 5253 5252
5251 5249 5247 5244 5242 5239 5237 5234 5232 5229 5226 5223 5220 5217 5213 5210 5207 5204 5201 5198 5195 5192 5189 5187 5185 5184 5183 5182 5182 5182 5182 5182 5182 5181 5181 5181 5181 5181 5181 5181 5181 5181 5181 5182 5182 5183 5184 5185 5186 5188 5189 5191 5193 5196 5198 5201 5203 5206 5209 5212 5216 5219 5222 5224 5227 5230 5232 5235 5237 5240 5243 5245 5247 5249 5251 5253 5254 5254 5255 5255 5255 5254 5254 5252 5251